When you browse on this site, cookies collect data to enhance your experience and personalize the content and advertising you see.
Visit our Privacy Policy to learn more. By continuing to use the site, you agree to this use of cookies and data.
  • en France
  • Liste des pays
  • À 7 jours
  • Température de l'eau
  • Carte satellitaire
  • Carte météo
  • Widgets météo
  • user-avatar
    Se connecter

    Météo par heure à Ario de Rosales

    Ce jour, 19 Juillet, Vendredi

    Heure Température Précipitation Vent Pression Humidité
    00:00 +16°C° 0.2 mm 1 m/s 611 mmHg 87%
    01:00 +16°C° 0.2 mm 1 m/s 611 mmHg 87%
    02:00 +15°C° 0.2 mm 1 m/s 611 mmHg 87%
    03:00 +15°C° 0.2 mm 1 m/s 610 mmHg 88%
    04:00 +15°C° 0.2 mm 1 m/s 610 mmHg 89%
    05:00 +15°C° 0.2 mm 1 m/s 610 mmHg 90%
    06:00 +16°C° 0.1 mm 1 m/s 611 mmHg 89%
    07:00 +16°C° 0.1 mm 1 m/s 611 mmHg 88%
    08:00 +18°C° 0.1 mm 1 m/s 612 mmHg 87%
    09:00 +19°C° 0.1 mm 1 m/s 612 mmHg 82%
    10:00 +21°C° 0.1 mm 1 m/s 612 mmHg 78%
    11:00 +22°C° 0.1 mm 1 m/s 613 mmHg 74%
    12:00 +22°C° 1 mm 1 m/s 612 mmHg 74%
    13:00 +23°C° 1 mm 1 m/s 612 mmHg 75%
    14:00 +23°C° 1 mm 1 m/s 611 mmHg 76%
    15:00 +22°C° 0.9 mm 1 m/s 611 mmHg 80%
    16:00 +20°C° 0.9 mm 0 m/s 611 mmHg 83%
    17:00 +19°C° 0.9 mm 0 m/s 610 mmHg 86%
    18:00 +18°C° 0.8 mm 0 m/s 610 mmHg 88%
    19:00 +18°C° 0.8 mm 1 m/s 610 mmHg 89%
    20:00 +16°C° 0.8 mm 1 m/s 610 mmHg 91%
    21:00 +15°C° 0.5 mm 1 m/s 611 mmHg 91%
    22:00 +15°C° 0.5 mm 1 m/s 611 mmHg 91%
    23:00 +15°C° 0.5 mm 1 m/s 611 mmHg 91%

    Demain, 20 Juillet, Samedi

    Heure Température Précipitation Vent Pression Humidité
    00:00 +15°C° 0.7 mm 1 m/s 611 mmHg 91%
    01:00 +15°C° 0.7 mm 1 m/s 611 mmHg 92%
    02:00 +14°C° 0.7 mm 0 m/s 610 mmHg 92%
    03:00 +14°C° 0.6 mm 0 m/s 610 mmHg 93%
    04:00 +13°C° 0.6 mm 0 m/s 610 mmHg 94%
    05:00 +13°C° 0.6 mm 0 m/s 610 mmHg 95%
    06:00 +14°C° 0.3 mm 0 m/s 610 mmHg 94%
    07:00 +15°C° 0.3 mm 0 m/s 611 mmHg 93%
    08:00 +15°C° 0.3 mm 0 m/s 612 mmHg 93%
    09:00 +16°C° 0.2 mm 0 m/s 612 mmHg 89%
    10:00 +17°C° 0.2 mm 0 m/s 612 mmHg 86%
    11:00 +20°C° 0.2 mm 1 m/s 612 mmHg 83%
    12:00 +21°C° 0.7 mm 1 m/s 612 mmHg 82%
    13:00 +21°C° 0.7 mm 1 m/s 611 mmHg 81%
    14:00 +22°C° 0.7 mm 1 m/s 611 mmHg 80%
    15:00 +21°C° 0.8 mm 1 m/s 610 mmHg 83%
    16:00 +21°C° 0.8 mm 1 m/s 610 mmHg 87%
    17:00 +18°C° 0.8 mm 0 m/s 610 mmHg 90%
    18:00 +17°C° 0.4 mm 0 m/s 610 mmHg 90%
    19:00 +18°C° 0.4 mm 1 m/s 610 mmHg 90%
    20:00 +16°C° 0.4 mm 1 m/s 610 mmHg 91%
    21:00 +15°C° 0.1 mm 1 m/s 610 mmHg 91%
    22:00 +15°C° 0.1 mm 1 m/s 610 mmHg 90%
    23:00 +15°C° 0.1 mm 1 m/s 610 mmHg 90%

    Après-demain, 21 Juillet, Dimanche

    Heure Température Précipitation Vent Pression Humidité
    00:00 +15°C° 0.1 mm 1 m/s 610 mmHg 89%
    01:00 +15°C° 0.1 mm 1 m/s 610 mmHg 89%
    02:00 +15°C° 0.1 mm 1 m/s 610 mmHg 88%
    03:00 +15°C° 0 mm 1 m/s 610 mmHg 87%
    04:00 +15°C° 0 mm 1 m/s 610 mmHg 87%
    05:00 +15°C° 0 mm 1 m/s 610 mmHg 86%
    06:00 +16°C° 0 mm 1 m/s 611 mmHg 84%
    07:00 +16°C° 0 mm 0 m/s 612 mmHg 82%
    08:00 +18°C° 0 mm 0 m/s 613 mmHg 80%
    09:00 +20°C° 0.4 mm 1 m/s 613 mmHg 78%
    10:00 +21°C° 0.4 mm 1 m/s 613 mmHg 76%
    11:00 +22°C° 0.4 mm 1 m/s 613 mmHg 74%
    12:00 +22°C° 0.6 mm 1 m/s 613 mmHg 74%
    13:00 +23°C° 0.6 mm 1 m/s 613 mmHg 74%
    14:00 +23°C° 0.6 mm 1 m/s 612 mmHg 74%
    15:00 +22°C° 0.5 mm 1 m/s 612 mmHg 78%
    16:00 +22°C° 0.5 mm 1 m/s 611 mmHg 82%
    17:00 +21°C° 0.5 mm 1 m/s 611 mmHg 86%
    18:00 +20°C° 0.2 mm 1 m/s 611 mmHg 86%
    19:00 +18°C° 0.2 mm 1 m/s 611 mmHg 86%
    20:00 +16°C° 0.2 mm 1 m/s 611 mmHg 86%
    21:00 +16°C° 0 mm 2 m/s 611 mmHg 85%
    22:00 +15°C° 0 mm 2 m/s 611 mmHg 83%
    23:00 +15°C° 0 mm 2 m/s 611 mmHg 82%

    22 Juillet, Lundi

    Heure Température Précipitation Vent Pression Humidité
    00:00 +15°C° 0 mm 2 m/s 611 mmHg 81%
    01:00 +15°C° 0 mm 2 m/s 610 mmHg 80%
    02:00 +15°C° 0 mm 2 m/s 610 mmHg 79%
    03:00 +15°C° 0.1 mm 2 m/s 610 mmHg 79%
    04:00 +15°C° 0.1 mm 1 m/s 610 mmHg 78%
    05:00 +14°C° 0.1 mm 1 m/s 610 mmHg 78%
    06:00 +16°C° 0 mm 1 m/s 611 mmHg 75%
    07:00 +19°C° 0 mm 1 m/s 612 mmHg 73%
    08:00 +19°C° 0 mm 0 m/s 614 mmHg 71%
    09:00 +22°C° 0.5 mm 1 m/s 614 mmHg 71%
    10:00 +22°C° 0.5 mm 1 m/s 614 mmHg 72%
    11:00 +23°C° 0.5 mm 1 m/s 614 mmHg 72%
    12:00 +23°C° 1.2 mm 1 m/s 613 mmHg 73%
    13:00 +23°C° 1.2 mm 1 m/s 612 mmHg 74%
    14:00 +23°C° 1.2 mm 1 m/s 612 mmHg 76%
    15:00 +22°C° 0.9 mm 1 m/s 611 mmHg 79%
    16:00 +21°C° 0.9 mm 1 m/s 610 mmHg 83%
    17:00 +20°C° 0.9 mm 1 m/s 610 mmHg 87%
    18:00 +19°C° 0.5 mm 1 m/s 610 mmHg 87%
    19:00 +18°C° 0.5 mm 1 m/s 610 mmHg 87%
    20:00 +16°C° 0.5 mm 1 m/s 610 mmHg 87%
    21:00 +16°C° 0.2 mm 1 m/s 611 mmHg 86%
    22:00 +16°C° 0.2 mm 1 m/s 611 mmHg 85%
    23:00 +16°C° 0.2 mm 1 m/s 611 mmHg 85%

    23 Juillet, Mardi

    Heure Température Précipitation Vent Pression Humidité
    00:00 +16°C° 0.1 mm 1 m/s 611 mmHg 85%
    01:00 +16°C° 0.1 mm 1 m/s 611 mmHg 86%
    02:00 +16°C° 0.1 mm 1 m/s 610 mmHg 86%
    03:00 +15°C° 0.1 mm 1 m/s 610 mmHg 86%
    04:00 +15°C° 0.1 mm 1 m/s 610 mmHg 87%
    05:00 +15°C° 0.1 mm 1 m/s 610 mmHg 87%
    06:00 +16°C° 0.3 mm 1 m/s 611 mmHg 86%
    07:00 +18°C° 0.3 mm 1 m/s 612 mmHg 86%
    08:00 +17°C° 0.3 mm 0 m/s 613 mmHg 85%
    09:00 +20°C° 0.6 mm 1 m/s 613 mmHg 84%
    10:00 +20°C° 0.6 mm 1 m/s 613 mmHg 82%
    11:00 +21°C° 0.6 mm 1 m/s 613 mmHg 80%
    12:00 +22°C° 0.4 mm 1 m/s 612 mmHg 77%
    13:00 +22°C° 0.4 mm 1 m/s 612 mmHg 74%
    14:00 +23°C° 0.4 mm 1 m/s 612 mmHg 71%
    15:00 +22°C° 0.6 mm 1 m/s 611 mmHg 76%
    16:00 +21°C° 0.6 mm 1 m/s 611 mmHg 82%
    17:00 +19°C° 0.6 mm 0 m/s 611 mmHg 87%
    18:00 +19°C° 0.7 mm 1 m/s 611 mmHg 88%
    19:00 +18°C° 0.7 mm 1 m/s 611 mmHg 89%
    20:00 +16°C° 0.7 mm 1 m/s 611 mmHg 90%
    21:00 +16°C° 0.2 mm 1 m/s 611 mmHg 90%
    22:00 +16°C° 0.2 mm 1 m/s 611 mmHg 89%
    23:00 +15°C° 0.2 mm 1 m/s 611 mmHg 89%

    24 Juillet, Mercredi

    Heure Température Précipitation Vent Pression Humidité
    00:00 +15°C° 1 mm 1 m/s 611 mmHg 90%
    01:00 +15°C° 1 mm 1 m/s 610 mmHg 90%
    02:00 +14°C° 1 mm 1 m/s 610 mmHg 91%
    03:00 +14°C° 0.5 mm 1 m/s 610 mmHg 91%
    04:00 +14°C° 0.5 mm 1 m/s 610 mmHg 92%
    05:00 +14°C° 0.5 mm 1 m/s 610 mmHg 92%
    06:00 +16°C° 0.2 mm 1 m/s 611 mmHg 89%
    07:00 +16°C° 0.2 mm 0 m/s 612 mmHg 87%
    08:00 +17°C° 0.2 mm 0 m/s 613 mmHg 84%
    09:00 +20°C° 1 mm 1 m/s 613 mmHg 84%
    10:00 +21°C° 1 mm 1 m/s 613 mmHg 83%
    11:00 +22°C° 1 mm 1 m/s 613 mmHg 82%
    12:00 +22°C° 1.4 mm 1 m/s 612 mmHg 81%
    13:00 +22°C° 1.4 mm 1 m/s 612 mmHg 79%
    14:00 +23°C° 1.4 mm 1 m/s 611 mmHg 78%
    15:00 +22°C° 1.4 mm 1 m/s 611 mmHg 82%
    16:00 +20°C° 1.4 mm 1 m/s 610 mmHg 87%
    17:00 +17°C° 1.4 mm 0 m/s 610 mmHg 92%
    18:00 +17°C° 1.6 mm 0 m/s 610 mmHg 93%
    19:00 +18°C° 1.6 mm 1 m/s 610 mmHg 94%
    20:00 +16°C° 1.6 mm 1 m/s 610 mmHg 94%
    21:00 +16°C° 1.3 mm 1 m/s 610 mmHg 95%
    22:00 +15°C° 1.3 mm 1 m/s 611 mmHg 95%
    23:00 +15°C° 1.3 mm 1 m/s 611 mmHg 95%
    Voir plus